Wind_Speed
77 73 72 73 67 65 66 60 55 51 49 48 47 47 46 44 43 44 44 43 44 44 43 44 45 45 44 44 44 47 48 49 52 54 55 57 60 62 64 66 69 71 74 76
76 75 71 72 68 61 62 61 56 52 49 46 45 45 43 43 44 44 45 45 46 47 47 46 46 46 47 50 52 54 54 55 57 59 62 64 66 68 70 72 76 80 82 85
78 72 69 68 68 64 62 55 56 52 50 48 47 45 46 46 45 47 47 49 50 49 49 49 49 53 56 58 58 60 61 62 63 66 68 69 71 73 77 81 84 87 92 95
76 77 73 64 60 64 65 62 58 55 54 52 51 48 48 52 52 52 53 53 53 54 54 55 57 61 63 62 64 67 68 69 71 73 74 75 77 79 84 87 91 94 95 96
75 74 74 73 60 56 62 64 63 60 59 59 58 58 52 58 58 59 60 57 57 59 60 63 65 68 70 69 71 73 75 75 78 81 81 83 83 86 87 88 90 89 88 89
72 74 73 73 74 67 60 62 62 62 64 66 61 67 59 62 64 64 65 66 67 68 68 69 72 74 75 77 75 69 71 70 72 73 74 75 77 80 82 82 83 82 81 81
67 68 68 69 69 72 75 78 77 78 77 71 69 68 65 66 68 70 71 71 72 74 73 72 73 73 74 73 74 72 73 77 76 74 75 75 74 74 76 76 75 70 64 62
61 61 63 65 67 69 71 71 73 71 68 71 74 74 72 74 72 73 73 73 73 74 76 76 75 71 71 73 74 77 80 79 74 72 70 69 68 67 66 57 52 48 46 44
57 59 60 60 61 64 68 70 71 72 72 73 75 76 76 77 77 74 73 73 74 76 75 73 72 73 76 78 81 83 79 75 71 67 63 60 53 44 39 38 33 34 37 41
52 54 55 56 58 60 62 62 64 64 64 65 65 68 72 71 71 72 73 73 73 73 74 75 77 80 82 85 85 75 70 63 59 53 42 33 28 27 28 25 28 34 36 40
47 48 50 51 53 54 55 57 57 58 60 63 62 66 76 70 72 72 71 71 73 75 77 80 82 85 86 73 67 61 55 43 29 25 22 18 18 19 23 26 29 33 38 40
47 47 48 49 50 52 55 57 58 59 60 62 61 62 67 69 71 72 74 75 78 81 82 80 76 65 62 59 53 35 20 20 19 18 18 17 18 22 23 26 31 35 37 36
48 50 52 53 53 54 57 60 63 65 66 69 68 69 73 77 79 81 81 79 76 72 62 60 57 51 35 27 19 14 17 13 13 16 16 19 23 24 28 31 33 33 31 30
14 26 36 45 52 56 58 61 61 59 61 61 55 58 56 59 59 56 54 50 46 44 37 29 23 19 17 18 19 17 16 14 17 20 22 23 23 26 29 31 29 28 29 29
23 14 4 5 13 19 23 26 27 29 30 29 28 27 28 25 22 20 16 14 14 13 13 14 16 18 19 21 18 15 16 18 19 18 19 22 25 29 31 25 27 28 28 29
36 28 26 23 18 15 10 8 6 5 7 7 7 4 4 5 5 7 8 11 13 13 15 14 15 22 19 24 19 18 21 23 22 19 22 25 28 26 22 26 29 29 30 30
44 37 32 26 22 20 18 16 14 12 10 8 5 5 5 6 8 11 14 12 15 19 21 18 18 20 17 18 19 22 25 25 23 22 25 27 26 22 26 28 28 28 22 22
40 40 35 32 28 23 17 13 12 11 9 8 8 9 10 10 10 12 15 19 21 21 19 21 21 21 19 18 21 24 25 24 22 23 26 21 20 24 26 25 23 17 18 20
32 34 37 34 29 29 27 22 17 13 9 8 8 9 9 10 11 12 13 16 16 17 21 21 20 23 25 24 26 27 25 22 22 21 18 21 22 23 19 15 16 17 19 20
24 25 26 35 31 28 26 25 25 22 19 17 15 14 15 14 13 12 12 10 9 9 9 12 15 17 19 21 22 21 21 17 19 19 21 20 18 14 17 17 18 18 18 17
22 20 22 25 30 30 31 24 23 25 25 26 21 20 18 18 18 17 15 12 8 5 5 8 10 11 12 12 12 13 14 15 16 15 16 15 12 14 17 18 17 17 15 16
23 21 19 22 24 27 26 27 21 23 26 28 27 24 23 23 22 21 19 16 11 8 6 6 8 11 12 11 11 10 10 11 11 11 12 11 13 16 18 21 21 20 20 19
25 23 26 22 21 23 28 23 20 23 20 21 28 25 24 23 23 22 19 17 15 13 11 10 10 10 11 11 11 11 10 11 10 10 10 11 11 12 14 14 17 17 19 21
33 30 27 27 31 25 29 35 33 28 29 21 25 27 20 20 22 21 22 20 17 16 14 12 12 13 9 7 7 9 11 12 10 10 8 12 17 19 21 22 22 24 23 23
47 42 36 36 39 35 34 34 39 39 36 35 34 32 26 22 21 20 20 21 22 21 18 18 16 16 14 15 14 14 14 14 15 17 19 20 22 24 25 27 27 27 28 31
56 52 48 42 47 43 47 42 40 39 46 44 43 44 36 30 28 26 27 25 24 25 25 24 22 22 21 20 21 22 24 24 25 27 28 28 30 30 31 33 35 37 38 38
Wind_Direction
212 217 220 223 225 230 234 236 237 239 240 240 241 242 243 245 248 250 253 257 261 265 269 272 274 277 277 279 278 276 277 278 279 281 281 280 279 279 279 280 281 281 280 279
211 215 219 223 225 229 235 238 237 240 243 243 243 243 243 247 250 254 257 260 263 266 270 275 279 280 280 278 277 279 280 281 281 282 282 282 282 282 283 284 284 284 284 283
216 212 219 223 227 229 232 238 239 241 244 246 247 249 250 251 255 259 261 263 267 272 275 275 274 274 274 276 278 279 280 281 282 281 281 281 281 283 283 284 284 285 283 280
216 218 217 219 228 233 233 236 238 240 244 245 248 249 254 254 256 257 260 265 268 268 268 271 271 272 274 277 279 280 281 282 282 282 281 281 282 282 283 284 286 284 284 285
216 220 223 222 220 232 238 239 241 242 243 245 248 248 250 257 257 258 259 261 265 268 269 271 272 274 278 280 281 282 283 284 284 282 281 281 282 282 284 283 284 285 287 288
223 222 224 226 225 225 230 234 238 243 244 246 247 249 247 250 259 264 265 265 267 269 272 273 276 277 278 281 281 282 285 285 286 287 284 282 281 281 282 284 286 288 287 288
224 225 230 232 234 239 240 239 240 243 247 251 255 258 260 259 262 264 269 272 274 276 278 279 280 280 281 282 282 285 287 288 287 287 284 283 283 284 284 285 285 285 288 288
226 227 229 231 235 238 241 245 249 252 255 255 256 257 259 262 265 268 271 272 275 277 279 280 281 281 282 282 284 286 289 288 288 286 284 284 283 282 282 282 282 285 292 299
224 227 232 235 238 241 243 246 250 253 256 258 260 262 263 265 268 270 272 272 273 276 277 277 277 279 282 285 287 289 288 288 286 285 284 284 281 278 279 281 287 298 304 311
226 228 233 237 240 243 246 249 252 254 257 260 261 263 264 266 268 270 271 272 273 274 275 276 279 282 285 285 285 285 287 285 283 281 280 277 276 272 278 290 303 307 309 310
232 235 238 242 245 248 252 255 258 261 263 264 264 266 265 267 267 268 271 273 274 275 276 278 280 282 282 282 284 285 284 279 269 267 265 268 272 281 291 298 304 306 310 311
242 244 246 248 250 251 253 255 257 260 262 264 265 264 269 269 270 270 271 274 275 275 275 277 277 277 280 282 281 273 257 240 249 250 252 265 282 292 292 297 308 308 308 310
243 247 251 255 256 257 259 261 264 265 268 269 269 269 270 272 272 274 273 277 272 270 271 271 273 276 273 265 259 215 225 237 252 257 264 275 279 290 299 307 303 303 307 311
242 248 251 254 256 259 261 264 265 267 268 269 271 270 268 270 271 274 273 269 264 261 261 260 255 253 232 226 211 220 222 244 252 261 273 278 287 299 305 301 302 302 307 311
68 69 66 257 254 254 255 257 259 260 262 263 264 264 265 266 265 265 258 255 241 232 228 231 221 211 219 220 223 234 238 252 268 281 281 291 303 305 299 296 298 306 310 313
53 53 57 57 56 51 33 10 344 299 285 262 254 249 275 263 294 298 284 236 215 216 221 226 228 222 232 219 226 235 248 261 280 286 295 302 304 299 295 299 309 310 315 317
41 45 46 49 44 41 45 47 48 47 55 62 58 42 5 334 325 317 307 296 270 261 229 225 227 226 228 229 242 245 259 276 282 288 295 295 293 292 303 308 306 310 319 329
40 40 41 41 42 41 39 31 26 22 14 3 349 335 327 319 314 301 302 294 274 265 244 233 226 225 236 251 250 252 267 275 281 287 296 292 288 297 303 303 304 313 322 328
24 21 34 31 34 34 35 31 29 27 24 13 0 351 341 328 311 308 320 311 282 255 236 242 244 245 250 258 257 260 269 276 284 286 283 287 294 300 302 304 308 311 315 324
12 15 13 13 22 21 24 30 32 33 31 26 24 21 12 2 352 344 326 317 279 257 232 242 251 255 256 258 260 261 267 271 275 282 285 289 289 289 296 307 311 314 318 322
355 357 353 355 354 356 3 11 20 18 14 12 9 6 4 6 6 359 352 336 319 299 272 266 265 264 263 265 263 260 268 272 282 282 290 284 282 295 306 308 307 313 313 324
321 329 336 342 338 338 340 342 349 353 359 1 357 357 353 356 359 358 0 4 359 351 315 288 275 269 267 264 261 258 269 275 282 279 284 293 301 304 310 316 322 327 331 332
296 302 305 315 317 314 317 317 318 323 326 336 345 342 343 340 341 348 348 352 355 357 342 316 300 290 275 269 272 275 272 276 278 294 313 323 329 325 322 320 327 316 328 325
288 285 284 297 293 297 297 300 300 303 309 296 314 324 317 324 325 324 324 324 327 332 335 330 326 317 294 286 281 291 290 296 302 313 300 310 313 315 317 316 315 316 320 320
280 288 292 279 291 284 281 282 291 292 292 287 286 304 294 290 296 306 308 308 307 306 303 302 293 297 292 287 290 301 294 287 294 290 291 296 301 302 301 303 300 302 303 313
279 282 283 279 278 280 280 273 268 279 284 282 281 290 291 283 277 280 286 291 288 291 292 289 288 286 283 280 277 282 280 286 291 297 294 292 294 302 297 296 296 297 301 304
Height
10626 10638 10651 10660 10668 10675 10683 10691 10700 10705 10710 10714 10717 10721 10725 10728 10729 10732 10734 10735 10736 10737 10737 10737 10736 10734 10733 10732 10730 10729 10729 10729 10729 10727 10725 10723 10720 10717 10714 10712 10708 10705 10701 10698
10621 10633 10643 10653 10663 10670 10677 10685 10693 10697 10702 10707 10710 10713 10718 10720 10721 10723 10725 10726 10726 10727 10727 10726 10726 10724 10723 10721 10720 10719 10719 10719 10718 10716 10713 10709 10706 10701 10699 10695 10690 10685 10681 10675
10615 10626 10637 10647 10656 10664 10671 10678 10683 10690 10694 10698 10702 10705 10710 10711 10712 10714 10715 10716 10717 10718 10718 10717 10716 10714 10712 10712 10711 10710 10709 10708 10708 10704 10700 10696 10692 10688 10681 10675 10670 10666 10659 10652
10608 10619 10630 10641 10651 10658 10664 10670 10675 10681 10685 10690 10693 10700 10700 10700 10703 10704 10705 10706 10707 10707 10706 10706 10705 10703 10702 10701 10699 10698 10697 10695 10692 10689 10685 10682 10676 10671 10662 10658 10651 10643 10638 10630
10602 10612 10622 10632 10641 10650 10656 10662 10667 10672 10676 10680 10684 10689 10694 10689 10691 10693 10695 10696 10697 10696 10695 10694 10692 10690 10690 10688 10685 10684 10682 10681 10676 10671 10667 10663 10657 10652 10647 10639 10631 10624 10619 10611
10599 10607 10616 10624 10630 10638 10646 10651 10656 10661 10664 10670 10673 10674 10687 10679 10678 10681 10682 10683 10684 10684 10684 10682 10680 10678 10675 10673 10670 10668 10667 10662 10657 10653 10647 10643 10638 10633 10627 10621 10616 10609 10603 10595
10594 10602 10611 10619 10626 10631 10635 10638 10643 10648 10653 10661 10663 10667 10671 10670 10669 10670 10669 10669 10669 10668 10667 10665 10662 10660 10658 10656 10655 10652 10649 10643 10639 10635 10628 10624 10621 10617 10611 10606 10600 10595 10588 10581
10588 10597 10604 10610 10616 10622 10626 10631 10635 10640 10645 10648 10649 10656 10655 10654 10656 10658 10658 10657 10654 10652 10650 10648 10646 10644 10642 10641 10638 10636 10631 10625 10622 10617 10612 10608 10604 10600 10595 10590 10587 10582 10576 10568
10581 10590 10597 10603 10608 10613 10618 10622 10625 10629 10634 10637 10639 10640 10641 10640 10641 10642 10642 10641 10639 10637 10635 10633 10631 10628 10627 10624 10620 10617 10612 10608 10604 10599 10595 10592 10588 10585 10584 10582 10577 10572 10565 10557
10577 10584 10590 10596 10601 10605 10609 10613 10615 10618 10622 10625 10628 10627 10622 10625 10627 10625 10624 10624 10622 10622 10620 10618 10615 10613 10610 10606 10603 10599 10596 10592 10588 10584 10582 10579 10579 10579 10577 10573 10567 10562 10555 10550
10575 10581 10586 10591 10595 10598 10601 10602 10605 10607 10609 10610 10613 10615 10600 10611 10609 10609 10609 10607 10605 10605 10603 10601 10599 10597 10593 10590 10587 10584 10581 10577 10575 10575 10575 10574 10574 10572 10568 10565 10560 10556 10550 10543
10572 10577 10581 10584 10587 10589 10591 10592 10594 10595 10597 10596 10599 10601 10594 10592 10592 10593 10593 10592 10590 10589 10587 10585 10582 10580 10578 10575 10573 10570 10569 10570 10570 10571 10570 10568 10566 10565 10562 10558 10554 10550 10545 10537
10564 10569 10572 10574 10577 10579 10579 10581 10581 10581 10581 10580 10584 10583 10580 10578 10576 10574 10574 10573 10573 10572 10570 10569 10567 10566 10564 10563 10563 10564 10566 10566 10566 10565 10565 10564 10562 10560 10556 10553 10550 10545 10539 10533
10560 10562 10563 10564 10566 10567 10567 10567 10567 10568 10566 10566 10566 10566 10563 10561 10560 10559 10558 10556 10556 10556 10556 10556 10556 10557 10558 10559 10560 10561 10562 10561 10561 10562 10561 10559 10557 10554 10551 10548 10545 10540 10535 10529
10563 10563 10562 10562 10561 10560 10560 10559 10558 10558 10557 10556 10555 10554 10554 10553 10551 10550 10548 10547 10548 10549 10550 10551 10552 10554 10554 10555 10556 10557 10557 10558 10558 10557 10556 10554 10551 10549 10546 10543 10540 10536 10531 10526
10568 10566 10565 10563 10562 10560 10559 10558 10557 10556 10554 10554 10553 10553 10552 10551 10550 10549 10548 10548 10548 10548 10548 10548 10549 10549 10550 10552 10552 10553 10554 10554 10554 10552 10550 10548 10547 10544 10542 10540 10536 10531 10527 10521
10575 10572 10569 10567 10566 10565 10563 10561 10560 10558 10557 10556 10555 10554 10553 10551 10550 10549 10548 10547 10547 10546 10546 10546 10546 10547 10548 10549 10550 10551 10551 10551 10549 10547 10545 10543 10542 10540 10538 10534 10530 10526 10521 10517
10583 10580 10577 10574 10571 10568 10565 10563 10561 10559 10558 10557 10555 10554 10553 10551 10548 10545 10542 10540 10539 10540 10541 10543 10543 10544 10544 10545 10546 10546 10546 10545 10543 10541 10539 10537 10536 10534 10531 10528 10524 10521 10517 10514
10587 10584 10582 10580 10577 10573 10569 10566 10563 10561 10559 10556 10554 10552 10550 10547 10545 10542 10538 10534 10532 10531 10533 10536 10537 10539 10540 10540 10539 10539 10539 10537 10535 10534 10532 10531 10529 10528 10525 10522 10519 10516 10513 10509
10589 10586 10584 10582 10579 10577 10574 10571 10568 10565 10563 10560 10556 10553 10550 10547 10544 10540 10536 10533 10531 10530 10529 10531 10532 10533 10533 10533 10532 10532 10531 10530 10528 10527 10526 10525 10523 10521 10519 10516 10513 10511 10508 10505
10589 10587 10585 10581 10579 10578 10575 10573 10570 10568 10565 10561 10558 10554 10551 10547 10544 10540 10536 10533 10530 10528 10528 10529 10529 10528 10527 10527 10526 10526 10526 10525 10523 10522 10521 10519 10517 10515 10513 10511 10508 10505 10502 10499
10585 10584 10583 10581 10579 10575 10572 10570 10569 10567 10564 10561 10558 10554 10551 10547 10544 10541 10537 10533 10530 10528 10527 10526 10525 10524 10523 10522 10521 10521 10520 10519 10518 10517 10515 10514 10513 10511 10509 10507 10505 10502 10499 10497
10580 10580 10578 10578 10576 10572 10568 10567 10565 10562 10561 10559 10557 10554 10550 10547 10543 10540 10537 10534 10531 10528 10526 10524 10522 10521 10519 10518 10517 10516 10516 10515 10514 10513 10511 10510 10509 10507 10505 10502 10500 10497 10494 10491
10569 10571 10571 10570 10567 10569 10566 10561 10559 10557 10555 10554 10552 10551 10548 10545 10542 10538 10536 10534 10531 10528 10525 10523 10520 10518 10517 10516 10515 10514 10513 10512 10510 10509 10507 10506 10504 10502 10500 10497 10495 10492 10488 10485
10554 10559 10564 10561 10556 10557 10557 10554 10550 10549 10548 10546 10544 10543 10542 10540 10538 10535 10532 10530 10528 10526 10524 10522 10520 10517 10515 10513 10512 10510 10508 10506 10505 10504 10502 10500 10498 10495 10493 10490 10486 10483 10480 10477
10545 10550 10551 10551 10543 10545 10539 10542 10543 10542 10537 10537 10535 10532 10532 10533 10531 10529 10526 10525 10522 10520 10518 10516 10515 10513 10511 10509 10507 10504 10501 10499 10497 10496 10494 10492 10490 10487 10484 10482 10478 10474 10471 10466